Location: Hormuz
(27.0871°N, 56.4580°E)
Time: 04:50:43
(UTC+04:30)

X-37B - Pass Details

Date: 21 June 2021
Orbit: 383 x 392 km, 45.0° (Epoch: 01 July)

Event Time Altitude Azimuth Distance (km) Brightness Sun altitude
Rises 04:06:03 0° 328° (NNW) 2,257 4.6 -20.1°
Reaches altitude 10° 04:08:56 10° 357° (N) 1,403 3.9 -19.6°
Maximum altitude 04:10:34 13° 28° (NNE) 1,224 4.1 -19.3°
Drops below altitude 10° 04:12:12 10° 59° (ENE) 1,404 4.6 -19.1°
Sets 04:15:05 0° 88° (E) 2,258 5.3 -18.6°
